Precipitable_Water
0.49 0.39 0.36 0.35 0.36 0.37 0.39 0.39 0.37 0.37 0.37 0.36 0.34 0.32 0.31 0.31 0.31 0.34 0.35 0.37 0.36 0.32 0.29 0.29 0.29 0.28 0.30 0.32 0.34 0.37 0.37 0.35 0.34 0.34 0.35 0.36 0.37 0.37 0.38 0.38 0.38 0.38 0.38 0.38 0.38 0.38 0.39 0.39 0.40 0.41 0.42 0.42 0.42 0.42 0.43 0.44 0.44 0.45 0.45 0.46 0.47 0.52 0.51 0.52 0.53 0.54 0.55 0.52 0.52 0.54 0.53 0.51 0.55 0.56 0.59 0.60 0.62 0.63 0.64 0.66 0.68 0.68 0.68 0.69 0.70 0.71
0.48 0.37 0.36 0.39 0.40 0.40 0.40 0.41 0.40 0.38 0.38 0.35 0.34 0.32 0.31 0.33 0.31 0.35 0.34 0.37 0.36 0.32 0.29 0.31 0.30 0.30 0.32 0.34 0.37 0.39 0.36 0.33 0.35 0.36 0.36 0.36 0.37 0.37 0.38 0.38 0.38 0.38 0.38 0.38 0.37 0.38 0.38 0.39 0.39 0.39 0.39 0.40 0.39 0.41 0.43 0.42 0.43 0.44 0.45 0.46 0.47 0.50 0.51 0.50 0.52 0.55 0.56 0.56 0.54 0.53 0.53 0.54 0.55 0.55 0.55 0.56 0.60 0.62 0.64 0.64 0.65 0.66 0.66 0.67 0.67 0.69
0.38 0.35 0.39 0.42 0.44 0.44 0.42 0.42 0.41 0.39 0.37 0.37 0.34 0.34 0.33 0.33 0.35 0.36 0.36 0.37 0.36 0.34 0.30 0.32 0.31 0.32 0.34 0.37 0.38 0.37 0.35 0.36 0.38 0.37 0.37 0.37 0.37 0.37 0.38 0.37 0.36 0.36 0.36 0.37 0.37 0.38 0.38 0.38 0.38 0.39 0.39 0.39 0.40 0.41 0.42 0.43 0.43 0.43 0.44 0.45 0.46 0.48 0.49 0.50 0.50 0.51 0.53 0.56 0.57 0.56 0.56 0.56 0.55 0.59 0.59 0.58 0.60 0.61 0.62 0.63 0.63 0.64 0.65 0.65 0.64 0.66
0.35 0.38 0.43 0.47 0.47 0.44 0.42 0.42 0.41 0.39 0.38 0.36 0.35 0.33 0.31 0.35 0.33 0.29 0.35 0.36 0.37 0.35 0.32 0.33 0.31 0.33 0.37 0.36 0.36 0.36 0.36 0.37 0.38 0.38 0.38 0.39 0.37 0.38 0.37 0.37 0.36 0.36 0.36 0.36 0.37 0.37 0.38 0.39 0.39 0.38 0.38 0.39 0.39 0.39 0.40 0.42 0.42 0.44 0.44 0.45 0.46 0.47 0.49 0.50 0.51 0.51 0.54 0.56 0.58 0.59 0.59 0.58 0.57 0.55 0.56 0.55 0.56 0.55 0.56 0.55 0.59 0.62 0.64 0.64 0.64 0.64
0.40 0.46 0.50 0.49 0.48 0.45 0.41 0.41 0.39 0.37 0.35 0.38 0.37 0.35 0.34 0.34 0.35 0.34 0.35 0.37 0.38 0.38 0.37 0.34 0.32 0.31 0.35 0.33 0.32 0.34 0.36 0.37 0.37 0.36 0.36 0.37 0.39 0.39 0.38 0.38 0.38 0.37 0.37 0.37 0.38 0.39 0.39 0.38 0.38 0.39 0.40 0.40 0.38 0.38 0.39 0.40 0.42 0.43 0.44 0.46 0.46 0.47 0.48 0.49 0.51 0.53 0.54 0.57 0.55 0.55 0.53 0.54 0.54 0.54 0.53 0.51 0.50 0.51 0.52 0.53 0.53 0.54 0.57 0.60 0.62 0.64
0.44 0.50 0.52 0.47 0.46 0.45 0.42 0.39 0.40 0.40 0.35 0.36 0.39 0.38 0.38 0.38 0.36 0.37 0.38 0.36 0.33 0.31 0.35 0.33 0.26 0.26 0.31 0.31 0.30 0.32 0.35 0.35 0.35 0.33 0.32 0.34 0.37 0.37 0.35 0.36 0.38 0.39 0.41 0.40 0.39 0.40 0.40 0.40 0.40 0.40 0.41 0.40 0.40 0.39 0.40 0.41 0.42 0.43 0.44 0.45 0.46 0.47 0.47 0.47 0.49 0.51 0.53 0.54 0.53 0.51 0.48 0.46 0.46 0.45 0.47 0.46 0.47 0.49 0.49 0.49 0.53 0.54 0.54 0.55 0.57 0.59
0.45 0.50 0.49 0.45 0.43 0.42 0.42 0.40 0.42 0.42 0.36 0.34 0.35 0.42 0.40 0.38 0.37 0.36 0.35 0.34 0.29 0.27 0.33 0.36 0.27 0.23 0.32 0.31 0.33 0.32 0.33 0.33 0.34 0.32 0.32 0.33 0.35 0.36 0.36 0.37 0.38 0.39 0.40 0.41 0.42 0.42 0.41 0.41 0.41 0.41 0.42 0.42 0.42 0.43 0.43 0.42 0.42 0.42 0.42 0.43 0.45 0.46 0.47 0.48 0.49 0.50 0.50 0.50 0.52 0.52 0.50 0.49 0.48 0.47 0.49 0.52 0.53 0.52 0.53 0.53 0.52 0.52 0.53 0.54 0.54 0.56
0.46 0.44 0.44 0.44 0.42 0.41 0.41 0.39 0.42 0.42 0.38 0.33 0.42 0.42 0.40 0.36 0.35 0.35 0.35 0.34 0.32 0.36 0.36 0.37 0.34 0.26 0.24 0.29 0.34 0.35 0.32 0.31 0.32 0.32 0.32 0.34 0.34 0.35 0.37 0.39 0.40 0.40 0.41 0.41 0.41 0.42 0.42 0.42 0.42 0.42 0.43 0.43 0.44 0.45 0.46 0.45 0.45 0.43 0.42 0.42 0.43 0.44 0.45 0.47 0.49 0.50 0.50 0.48 0.49 0.49 0.49 0.49 0.48 0.48 0.48 0.51 0.52 0.53 0.52 0.51 0.51 0.51 0.51 0.52 0.53 0.54
0.44 0.43 0.44 0.42 0.42 0.41 0.39 0.42 0.47 0.46 0.39 0.38 0.42 0.41 0.38 0.37 0.35 0.35 0.35 0.34 0.34 0.32 0.27 0.32 0.34 0.28 0.25 0.30 0.34 0.33 0.28 0.30 0.31 0.31 0.32 0.34 0.36 0.38 0.38 0.40 0.41 0.42 0.43 0.42 0.42 0.41 0.41 0.41 0.42 0.42 0.42 0.44 0.45 0.46 0.46 0.46 0.47 0.47 0.46 0.45 0.44 0.43 0.45 0.46 0.47 0.48 0.50 0.50 0.49 0.48 0.48 0.47 0.49 0.49 0.49 0.51 0.52 0.50 0.51 0.50 0.50 0.50 0.51 0.51 0.52 0.54
0.48 0.48 0.48 0.47 0.44 0.41 0.46 0.48 0.48 0.46 0.39 0.45 0.44 0.42 0.40 0.39 0.37 0.36 0.34 0.33 0.33 0.30 0.24 0.29 0.32 0.26 0.24 0.28 0.29 0.31 0.29 0.28 0.30 0.31 0.32 0.34 0.36 0.38 0.40 0.40 0.41 0.42 0.43 0.44 0.44 0.44 0.43 0.43 0.43 0.43 0.45 0.44 0.44 0.45 0.47 0.47 0.48 0.48 0.48 0.47 0.47 0.45 0.45 0.45 0.46 0.47 0.48 0.50 0.50 0.48 0.47 0.47 0.48 0.49 0.50 0.50 0.49 0.49 0.49 0.48 0.48 0.49 0.50 0.50 0.51 0.52
0.50 0.53 0.53 0.48 0.46 0.47 0.47 0.48 0.48 0.46 0.45 0.46 0.44 0.39 0.38 0.38 0.37 0.37 0.36 0.34 0.31 0.24 0.24 0.30 0.32 0.28 0.21 0.24 0.28 0.26 0.27 0.30 0.31 0.31 0.33 0.35 0.36 0.38 0.39 0.40 0.41 0.41 0.42 0.43 0.43 0.43 0.43 0.43 0.41 0.41 0.42 0.44 0.45 0.45 0.45 0.45 0.46 0.47 0.47 0.48 0.48 0.48 0.49 0.48 0.47 0.47 0.47 0.49 0.48 0.47 0.46 0.46 0.47 0.48 0.49 0.49 0.49 0.50 0.49 0.48 0.48 0.48 0.48 0.49 0.49 0.50
0.47 0.47 0.45 0.47 0.49 0.48 0.47 0.44 0.46 0.47 0.46 0.43 0.38 0.35 0.34 0.32 0.34 0.33 0.32 0.32 0.24 0.20 0.26 0.31 0.30 0.30 0.19 0.23 0.27 0.29 0.32 0.32 0.31 0.31 0.32 0.34 0.34 0.36 0.39 0.40 0.40 0.41 0.42 0.42 0.41 0.40 0.40 0.40 0.40 0.42 0.42 0.43 0.44 0.45 0.45 0.45 0.45 0.45 0.46 0.47 0.47 0.48 0.49 0.50 0.50 0.50 0.49 0.48 0.47 0.47 0.46 0.46 0.47 0.46 0.46 0.46 0.46 0.48 0.48 0.49 0.49 0.50 0.49 0.49 0.49 0.49
0.38 0.39 0.44 0.45 0.47 0.43 0.40 0.38 0.39 0.41 0.40 0.37 0.35 0.33 0.28 0.25 0.27 0.24 0.27 0.23 0.23 0.22 0.28 0.31 0.31 0.26 0.23 0.25 0.27 0.29 0.30 0.32 0.33 0.33 0.33 0.34 0.35 0.36 0.38 0.39 0.39 0.39 0.38 0.36 0.36 0.38 0.39 0.39 0.40 0.41 0.42 0.43 0.43 0.44 0.45 0.46 0.46 0.46 0.45 0.46 0.46 0.47 0.49 0.49 0.50 0.49 0.49 0.49 0.49 0.49 0.49 0.48 0.48 0.47 0.47 0.47 0.46 0.47 0.47 0.48 0.48 0.49 0.49 0.50 0.49 0.49
0.36 0.42 0.41 0.40 0.39 0.40 0.39 0.32 0.33 0.32 0.35 0.34 0.31 0.30 0.27 0.23 0.22 0.20 0.22 0.26 0.24 0.27 0.31 0.30 0.32 0.24 0.25 0.27 0.30 0.29 0.30 0.32 0.33 0.34 0.35 0.35 0.35 0.35 0.36 0.37 0.37 0.37 0.36 0.36 0.36 0.36 0.38 0.40 0.42 0.43 0.44 0.44 0.45 0.45 0.45 0.45 0.46 0.46 0.45 0.45 0.45 0.45 0.48 0.49 0.50 0.50 0.49 0.49 0.49 0.50 0.50 0.50 0.51 0.50 0.50 0.49 0.48 0.48 0.48 0.48 0.47 0.47 0.48 0.48 0.50 0.51
0.26 0.26 0.35 0.38 0.34 0.42 0.39 0.37 0.37 0.35 0.34 0.32 0.35 0.32 0.28 0.26 0.23 0.20 0.21 0.19 0.21 0.24 0.29 0.33 0.26 0.21 0.20 0.24 0.33 0.33 0.34 0.34 0.35 0.35 0.36 0.36 0.36 0.36 0.37 0.37 0.36 0.35 0.35 0.35 0.36 0.37 0.39 0.40 0.42 0.43 0.44 0.45 0.45 0.45 0.46 0.46 0.46 0.45 0.45 0.45 0.45 0.45 0.47 0.48 0.49 0.49 0.50 0.51 0.51 0.51 0.51 0.51 0.51 0.51 0.51 0.52 0.52 0.52 0.52 0.52 0.50 0.49 0.48 0.47 0.48 0.50
0.29 0.28 0.36 0.42 0.42 0.42 0.36 0.39 0.40 0.38 0.36 0.38 0.38 0.39 0.32 0.28 0.33 0.25 0.26 0.26 0.25 0.26 0.25 0.26 0.23 0.25 0.24 0.32 0.33 0.35 0.35 0.34 0.35 0.35 0.36 0.35 0.36 0.37 0.36 0.35 0.35 0.35 0.35 0.36 0.37 0.38 0.39 0.41 0.43 0.44 0.44 0.44 0.44 0.44 0.45 0.44 0.45 0.44 0.44 0.44 0.45 0.45 0.46 0.48 0.49 0.49 0.49 0.50 0.50 0.51 0.51 0.52 0.53 0.52 0.53 0.53 0.53 0.53 0.53 0.53 0.54 0.54 0.53 0.51 0.50 0.50
0.33 0.28 0.39 0.43 0.44 0.42 0.42 0.44 0.43 0.44 0.29 0.37 0.36 0.30 0.33 0.41 0.37 0.33 0.32 0.32 0.31 0.27 0.21 0.24 0.23 0.24 0.29 0.33 0.34 0.34 0.34 0.35 0.36 0.35 0.35 0.35 0.36 0.36 0.35 0.34 0.33 0.34 0.35 0.37 0.38 0.39 0.40 0.41 0.42 0.43 0.43 0.43 0.43 0.44 0.44 0.44 0.45 0.44 0.43 0.43 0.43 0.44 0.45 0.46 0.47 0.49 0.49 0.50 0.50 0.49 0.49 0.50 0.51 0.52 0.52 0.53 0.53 0.54 0.55 0.55 0.55 0.55 0.55 0.56 0.55 0.53
0.30 0.29 0.41 0.38 0.38 0.44 0.46 0.46 0.45 0.45 0.45 0.39 0.31 0.35 0.41 0.44 0.40 0.33 0.25 0.26 0.24 0.20 0.20 0.22 0.19 0.21 0.23 0.21 0.33 0.32 0.30 0.30 0.32 0.32 0.33 0.34 0.35 0.34 0.34 0.33 0.33 0.34 0.35 0.37 0.38 0.39 0.40 0.40 0.40 0.41 0.42 0.42 0.42 0.42 0.42 0.43 0.43 0.44 0.43 0.42 0.42 0.42 0.43 0.43 0.44 0.45 0.47 0.48 0.49 0.49 0.48 0.48 0.48 0.47 0.49 0.51 0.52 0.54 0.54 0.54 0.55 0.55 0.55 0.56 0.57 0.57
0.40 0.28 0.32 0.39 0.38 0.41 0.44 0.42 0.39 0.43 0.45 0.39 0.36 0.45 0.32 0.28 0.26 0.31 0.28 0.20 0.18 0.17 0.18 0.21 0.23 0.22 0.22 0.21 0.26 0.27 0.27 0.29 0.31 0.34 0.34 0.33 0.33 0.33 0.32 0.32 0.33 0.35 0.35 0.37 0.38 0.39 0.40 0.41 0.41 0.42 0.42 0.41 0.41 0.41 0.40 0.41 0.40 0.41 0.42 0.42 0.41 0.40 0.40 0.41 0.42 0.42 0.43 0.44 0.45 0.45 0.45 0.45 0.45 0.45 0.46 0.47 0.48 0.49 0.50 0.52 0.53 0.54 0.55 0.56 0.56 0.56
0.44 0.30 0.29 0.36 0.37 0.39 0.40 0.37 0.27 0.33 0.40 0.42 0.42 0.36 0.40 0.32 0.25 0.21 0.22 0.24 0.25 0.19 0.19 0.19 0.21 0.18 0.22 0.21 0.27 0.28 0.31 0.31 0.33 0.34 0.34 0.34 0.34 0.34 0.34 0.35 0.36 0.36 0.38 0.39 0.40 0.40 0.41 0.41 0.42 0.42 0.41 0.41 0.40 0.40 0.40 0.40 0.40 0.39 0.39 0.39 0.39 0.39 0.39 0.38 0.38 0.38 0.38 0.38 0.38 0.38 0.39 0.40 0.40 0.40 0.40 0.41 0.43 0.44 0.46 0.48 0.49 0.50 0.52 0.54 0.55 0.56
0.35 0.39 0.24 0.30 0.36 0.35 0.26 0.31 0.26 0.28 0.27 0.29 0.28 0.27 0.31 0.28 0.34 0.31 0.31 0.25 0.21 0.19 0.19 0.18 0.16 0.19 0.22 0.28 0.27 0.28 0.31 0.33 0.34 0.34 0.35 0.36 0.36 0.37 0.38 0.38 0.39 0.39 0.40 0.40 0.41 0.41 0.41 0.41 0.41 0.41 0.42 0.41 0.42 0.41 0.40 0.39 0.38 0.37 0.38 0.38 0.37 0.36 0.35 0.34 0.34 0.34 0.34 0.33 0.33 0.33 0.33 0.34 0.36 0.37 0.38 0.37 0.37 0.37 0.39 0.41 0.45 0.48 0.49 0.51 0.52 0.54
0.32 0.32 0.24 0.27 0.26 0.25 0.25 0.32 0.33 0.32 0.31 0.29 0.29 0.27 0.28 0.26 0.24 0.20 0.18 0.28 0.25 0.23 0.19 0.18 0.16 0.21 0.25 0.30 0.31 0.31 0.33 0.34 0.35 0.34 0.34 0.35 0.38 0.39 0.41 0.42 0.42 0.42 0.42 0.43 0.43 0.42 0.41 0.41 0.40 0.39 0.39 0.39 0.39 0.39 0.38 0.40 0.39 0.37 0.35 0.34 0.34 0.34 0.34 0.33 0.33 0.33 0.33 0.32 0.32 0.32 0.31 0.32 0.33 0.33 0.34 0.35 0.37 0.37 0.38 0.39 0.39 0.40 0.43 0.47 0.50 0.52
0.40 0.37 0.31 0.25 0.24 0.23 0.24 0.28 0.33 0.35 0.34 0.31 0.31 0.26 0.29 0.27 0.26 0.22 0.16 0.18 0.23 0.24 0.25 0.22 0.20 0.20 0.30 0.32 0.32 0.34 0.33 0.33 0.35 0.36 0.37 0.39 0.40 0.42 0.43 0.43 0.44 0.44 0.43 0.43 0.42 0.41 0.39 0.39 0.37 0.37 0.36 0.35 0.35 0.35 0.36 0.36 0.34 0.34 0.33 0.33 0.33 0.32 0.31 0.31 0.32 0.32 0.34 0.34 0.33 0.32 0.31 0.31 0.31 0.30 0.30 0.31 0.32 0.32 0.34 0.38 0.40 0.40 0.39 0.40 0.42 0.46
0.38 0.28 0.23 0.25 0.30 0.32 0.32 0.31 0.32 0.34 0.32 0.29 0.30 0.30 0.28 0.24 0.25 0.24 0.23 0.25 0.22 0.21 0.19 0.19 0.18 0.23 0.33 0.38 0.36 0.35 0.36 0.37 0.38 0.39 0.38 0.39 0.39 0.40 0.40 0.41 0.41 0.41 0.40 0.39 0.39 0.38 0.36 0.36 0.34 0.34 0.33 0.33 0.32 0.32 0.32 0.31 0.31 0.31 0.30 0.28 0.28 0.28 0.27 0.27 0.27 0.27 0.28 0.28 0.28 0.29 0.30 0.29 0.29 0.29 0.29 0.28 0.28 0.28 0.29 0.30 0.33 0.36 0.37 0.37 0.37 0.39
0.27 0.30 0.28 0.23 0.21 0.22 0.22 0.22 0.22 0.31 0.32 0.30 0.28 0.31 0.32 0.32 0.31 0.31 0.31 0.31 0.24 0.23 0.21 0.20 0.16 0.20 0.34 0.38 0.37 0.36 0.35 0.34 0.35 0.37 0.38 0.37 0.38 0.40 0.40 0.40 0.39 0.39 0.38 0.37 0.36 0.35 0.33 0.32 0.31 0.31 0.31 0.30 0.29 0.29 0.29 0.29 0.28 0.28 0.27 0.27 0.26 0.25 0.25 0.24 0.25 0.24 0.24 0.24 0.23 0.23 0.23 0.24 0.26 0.26 0.26 0.26 0.27 0.27 0.27 0.27 0.27 0.28 0.30 0.32 0.33 0.34
0.29 0.27 0.25 0.17 0.15 0.13 0.11 0.10 0.12 0.17 0.26 0.32 0.33 0.31 0.32 0.32 0.31 0.29 0.24 0.24 0.20 0.23 0.23 0.20 0.19 0.25 0.31 0.31 0.30 0.31 0.32 0.33 0.35 0.36 0.38 0.39 0.39 0.40 0.40 0.40 0.39 0.38 0.36 0.34 0.33 0.32 0.30 0.30 0.30 0.28 0.28 0.27 0.26 0.26 0.25 0.24 0.24 0.24 0.24 0.24 0.24 0.24 0.23 0.23 0.24 0.23 0.22 0.22 0.21 0.20 0.20 0.19 0.20 0.22 0.23 0.23 0.23 0.24 0.24 0.25 0.25 0.26 0.26 0.26 0.27 0.30
0.30 0.31 0.27 0.24 0.20 0.16 0.17 0.19 0.24 0.25 0.23 0.20 0.22 0.24 0.25 0.26 0.28 0.27 0.24 0.19 0.15 0.15 0.15 0.17 0.17 0.16 0.18 0.20 0.20 0.22 0.25 0.26 0.29 0.33 0.34 0.37 0.39 0.39 0.39 0.38 0.35 0.32 0.30 0.28 0.28 0.28 0.29 0.28 0.27 0.27 0.26 0.25 0.24 0.23 0.21 0.21 0.20 0.20 0.20 0.20 0.20 0.21 0.21 0.20 0.20 0.20 0.20 0.20 0.19 0.18 0.18 0.17 0.18 0.18 0.19 0.20 0.21 0.21 0.23 0.22 0.21 0.21 0.22 0.23 0.24 0.25
0.23 0.17 0.17 0.17 0.17 0.17 0.18 0.16 0.15 0.14 0.12 0.13 0.12 0.11 0.13 0.14 0.15 0.15 0.14 0.10 0.14 0.16 0.12 0.14 0.15 0.16 0.18 0.19 0.20 0.23 0.26 0.27 0.28 0.28 0.28 0.28 0.28 0.28 0.27 0.26 0.24 0.23 0.23 0.23 0.23 0.23 0.21 0.22 0.21 0.21 0.21 0.21 0.20 0.19 0.19 0.19 0.19 0.19 0.19 0.19 0.19 0.19 0.19 0.19 0.18 0.17 0.17 0.17 0.16 0.16 0.15 0.15 0.15 0.16 0.17 0.18 0.17 0.17 0.17 0.17 0.19 0.20 0.20 0.20 0.19 0.21
0.18 0.13 0.14 0.14 0.14 0.15 0.15 0.15 0.16 0.16 0.17 0.16 0.16 0.16 0.14 0.15 0.15 0.14 0.13 0.16 0.18 0.15 0.13 0.16 0.18 0.17 0.18 0.19 0.21 0.23 0.26 0.27 0.27 0.25 0.25 0.25 0.24 0.24 0.24 0.23 0.21 0.21 0.20 0.19 0.19 0.20 0.19 0.19 0.20 0.19 0.19 0.19 0.19 0.18 0.18 0.18 0.19 0.19 0.19 0.19 0.18 0.18 0.18 0.18 0.17 0.16 0.16 0.15 0.15 0.15 0.15 0.15 0.15 0.15 0.15 0.15 0.16 0.16 0.15 0.14 0.14 0.14 0.16 0.17 0.17 0.18
0.20 0.15 0.14 0.15 0.15 0.15 0.15 0.15 0.16 0.17 0.17 0.17 0.16 0.16 0.17 0.16 0.15 0.15 0.16 0.18 0.18 0.17 0.20 0.21 0.20 0.19 0.21 0.20 0.19 0.21 0.23 0.23 0.24 0.25 0.24 0.23 0.22 0.23 0.23 0.23 0.21 0.19 0.18 0.18 0.18 0.18 0.19 0.18 0.18 0.18 0.18 0.18 0.18 0.18 0.18 0.17 0.18 0.18 0.18 0.18 0.18 0.17 0.17 0.17 0.17 0.16 0.16 0.15 0.15 0.15 0.15 0.14 0.13 0.14 0.14 0.14 0.13 0.13 0.14 0.13 0.13 0.13 0.13 0.13 0.14 0.15
0.18 0.14 0.17 0.19 0.17 0.16 0.16 0.16 0.17 0.19 0.20 0.19 0.20 0.21 0.20 0.18 0.18 0.19 0.20 0.18 0.19 0.19 0.19 0.18 0.18 0.17 0.20 0.22 0.24 0.25 0.24 0.24 0.23 0.21 0.21 0.22 0.22 0.22 0.22 0.22 0.22 0.20 0.19 0.18 0.18 0.17 0.17 0.18 0.17 0.18 0.18 0.17 0.18 0.17 0.18 0.17 0.18 0.18 0.17 0.17 0.17 0.17 0.17 0.18 0.16 0.15 0.15 0.14 0.15 0.15 0.14 0.14 0.13 0.13 0.13 0.13 0.12 0.12 0.12 0.11 0.11 0.12 0.12 0.13 0.14 0.14
0.22 0.16 0.19 0.18 0.14 0.13 0.17 0.17 0.19 0.20 0.20 0.19 0.18 0.17 0.15 0.15 0.15 0.16 0.15 0.18 0.18 0.16 0.16 0.17 0.17 0.15 0.18 0.21 0.22 0.23 0.22 0.22 0.22 0.22 0.21 0.20 0.20 0.20 0.20 0.20 0.21 0.21 0.20 0.19 0.18 0.18 0.17 0.17 0.17 0.17 0.17 0.17 0.17 0.17 0.17 0.17 0.17 0.17 0.17 0.17 0.17 0.17 0.17 0.16 0.16 0.15 0.14 0.14 0.14 0.13 0.13 0.13 0.13 0.12 0.12 0.12 0.12 0.11 0.11 0.11 0.11 0.11 0.11 0.12 0.13 0.14
0.20 0.19 0.17 0.16 0.13 0.13 0.15 0.17 0.18 0.19 0.17 0.14 0.13 0.13 0.15 0.17 0.18 0.19 0.21 0.21 0.19 0.18 0.15 0.12 0.12 0.16 0.20 0.24 0.24 0.25 0.25 0.24 0.21 0.20 0.20 0.19 0.19 0.19 0.18 0.19 0.20 0.20 0.20 0.19 0.19 0.18 0.18 0.18 0.17 0.17 0.17 0.18 0.18 0.18 0.18 0.18 0.18 0.17 0.18 0.17 0.17 0.18 0.17 0.16 0.16 0.15 0.14 0.14 0.13 0.13 0.13 0.13 0.12 0.12 0.12 0.12 0.12 0.12 0.12 0.11 0.10 0.10 0.10 0.10 0.11 0.13
0.21 0.19 0.17 0.19 0.13 0.12 0.13 0.14 0.18 0.15 0.09 0.08 0.14 0.18 0.17 0.15 0.16 0.16 0.16 0.16 0.16 0.15 0.14 0.18 0.18 0.21 0.22 0.22 0.21 0.20 0.20 0.19 0.19 0.19 0.19 0.18 0.17 0.18 0.19 0.19 0.19 0.20 0.20 0.19 0.19 0.18 0.17 0.17 0.18 0.18 0.18 0.18 0.19 0.19 0.19 0.19 0.19 0.18 0.18 0.18 0.17 0.16 0.16 0.16 0.15 0.14 0.13 0.13 0.13 0.13 0.13 0.12 0.12 0.12 0.12 0.12 0.12 0.12 0.12 0.11 0.11 0.11 0.11 0.11 0.11 0.11
0.16 0.16 0.14 0.15 0.12 0.09 0.10 0.11 0.10 0.07 0.06 0.15 0.18 0.17 0.14 0.13 0.13 0.12 0.12 0.12 0.12 0.14 0.16 0.16 0.16 0.17 0.18 0.17 0.16 0.16 0.16 0.16 0.16 0.17 0.18 0.19 0.20 0.19 0.18 0.18 0.18 0.18 0.17 0.17 0.17 0.17 0.17 0.17 0.17 0.18 0.18 0.18 0.19 0.19 0.19 0.19 0.18 0.18 0.17 0.16 0.16 0.16 0.15 0.15 0.14 0.13 0.13 0.13 0.13 0.13 0.13 0.12 0.12 0.12 0.12 0.12 0.12 0.12 0.11 0.11 0.11 0.11 0.11 0.11 0.11 0.11
0.12 0.11 0.11 0.11 0.11 0.12 0.11 0.09 0.06 0.05 0.09 0.12 0.14 0.15 0.16 0.16 0.15 0.14 0.13 0.14 0.14 0.14 0.14 0.12 0.14 0.16 0.16 0.15 0.16 0.16 0.16 0.16 0.17 0.18 0.19 0.21 0.21 0.19 0.17 0.17 0.17 0.17 0.17 0.17 0.16 0.17 0.17 0.18 0.18 0.18 0.18 0.19 0.19 0.19 0.19 0.18 0.18 0.17 0.16 0.16 0.15 0.15 0.14 0.14 0.13 0.13 0.13 0.13 0.13 0.13 0.13 0.12 0.12 0.12 0.13 0.13 0.12 0.11 0.11 0.11 0.11 0.11 0.11 0.11 0.11 0.11
0.16 0.15 0.14 0.10 0.12 0.08 0.09 0.09 0.08 0.11 0.11 0.12 0.12 0.14 0.15 0.14 0.13 0.12 0.10 0.11 0.14 0.13 0.13 0.14 0.14 0.16 0.15 0.16 0.16 0.16 0.17 0.18 0.16 0.17 0.19 0.20 0.20 0.18 0.17 0.17 0.17 0.17 0.17 0.18 0.18 0.18 0.19 0.19 0.19 0.19 0.19 0.18 0.18 0.18 0.18 0.18 0.17 0.16 0.16 0.15 0.15 0.14 0.14 0.13 0.13 0.12 0.13 0.12 0.12 0.13 0.13 0.13 0.12 0.12 0.12 0.12 0.12 0.11 0.11 0.11 0.10 0.10 0.11 0.10 0.10 0.11
0.19 0.15 0.16 0.12 0.11 0.13 0.10 0.09 0.10 0.10 0.08 0.10 0.13 0.15 0.18 0.17 0.15 0.14 0.12 0.10 0.13 0.13 0.15 0.16 0.16 0.16 0.16 0.15 0.16 0.17 0.19 0.16 0.15 0.16 0.18 0.19 0.20 0.19 0.19 0.18 0.17 0.17 0.18 0.19 0.19 0.20 0.20 0.20 0.20 0.19 0.18 0.18 0.17 0.18 0.18 0.18 0.17 0.16 0.15 0.14 0.14 0.13 0.12 0.12 0.12 0.12 0.12 0.12 0.12 0.12 0.12 0.12 0.12 0.11 0.11 0.11 0.11 0.12 0.12 0.12 0.12 0.11 0.11 0.10 0.09 0.09
0.16 0.18 0.17 0.14 0.12 0.11 0.10 0.09 0.08 0.07 0.08 0.12 0.12 0.14 0.15 0.17 0.16 0.17 0.13 0.10 0.14 0.14 0.17 0.18 0.18 0.16 0.15 0.16 0.16 0.18 0.16 0.13 0.13 0.14 0.16 0.19 0.18 0.18 0.16 0.16 0.17 0.17 0.18 0.18 0.18 0.18 0.19 0.19 0.19 0.19 0.19 0.18 0.18 0.18 0.18 0.17 0.16 0.15 0.14 0.13 0.13 0.12 0.12 0.11 0.11 0.12 0.11 0.11 0.12 0.11 0.11 0.11 0.11 0.11 0.11 0.11 0.11 0.11 0.11 0.11 0.11 0.11 0.11 0.11 0.11 0.10
0.11 0.12 0.14 0.12 0.10 0.10 0.09 0.08 0.07 0.08 0.08 0.13 0.13 0.14 0.15 0.16 0.17 0.13 0.08 0.07 0.16 0.18 0.19 0.20 0.18 0.19 0.16 0.16 0.16 0.16 0.14 0.11 0.12 0.13 0.15 0.15 0.16 0.16 0.16 0.15 0.15 0.16 0.16 0.17 0.18 0.19 0.20 0.20 0.19 0.18 0.18 0.18 0.18 0.18 0.17 0.16 0.15 0.14 0.13 0.12 0.11 0.11 0.10 0.11 0.11 0.11 0.11 0.11 0.11 0.11 0.11 0.10 0.10 0.10 0.10 0.10 0.10 0.10 0.10 0.10 0.10 0.10 0.10 0.10 0.10 0.10
0.10 0.11 0.12 0.09 0.09 0.10 0.09 0.09 0.10 0.10 0.12 0.14 0.14 0.16 0.15 0.17 0.15 0.08 0.06 0.09 0.18 0.18 0.20 0.21 0.19 0.18 0.17 0.15 0.15 0.14 0.16 0.16 0.15 0.16 0.16 0.16 0.16 0.16 0.17 0.18 0.17 0.18 0.18 0.19 0.20 0.21 0.20 0.20 0.19 0.19 0.19 0.19 0.18 0.17 0.16 0.15 0.13 0.11 0.11 0.11 0.10 0.10 0.10 0.10 0.10 0.10 0.10 0.10 0.10 0.09 0.09 0.09 0.09 0.09 0.09 0.09 0.09 0.09 0.09 0.09 0.09 0.09 0.10 0.09 0.10 0.10
0.09 0.10 0.10 0.10 0.10 0.09 0.09 0.09 0.08 0.10 0.13 0.14 0.15 0.16 0.18 0.14 0.09 0.08 0.13 0.18 0.17 0.18 0.19 0.20 0.18 0.17 0.16 0.16 0.15 0.15 0.15 0.16 0.17 0.17 0.16 0.16 0.17 0.17 0.17 0.18 0.18 0.19 0.21 0.22 0.22 0.21 0.20 0.19 0.19 0.19 0.19 0.18 0.17 0.15 0.14 0.12 0.11 0.10 0.10 0.10 0.09 0.10 0.10 0.10 0.09 0.09 0.09 0.09 0.08 0.08 0.08 0.08 0.08 0.08 0.08 0.08 0.09 0.09 0.09 0.09 0.10 0.10 0.10 0.10 0.10 0.10
0.08 0.08 0.08 0.07 0.09 0.10 0.11 0.09 0.08 0.06 0.10 0.16 0.17 0.16 0.18 0.12 0.11 0.14 0.16 0.17 0.19 0.17 0.17 0.18 0.18 0.17 0.17 0.16 0.16 0.16 0.16 0.16 0.16 0.16 0.16 0.17 0.17 0.17 0.18 0.19 0.19 0.20 0.20 0.21 0.21 0.21 0.21 0.20 0.19 0.18 0.17 0.16 0.14 0.13 0.12 0.11 0.10 0.10 0.10 0.09 0.09 0.10 0.09 0.09 0.09 0.08 0.08 0.08 0.07 0.07 0.07 0.08 0.08 0.08 0.08 0.09 0.09 0.10 0.10 0.10 0.11 0.11 0.12 0.11 0.11 0.11
0.12 0.08 0.07 0.08 0.10 0.08 0.08 0.08 0.08 0.11 0.14 0.16 0.16 0.12 0.15 0.17 0.18 0.17 0.17 0.16 0.18 0.18 0.17 0.18 0.18 0.18 0.17 0.16 0.16 0.16 0.16 0.16 0.16 0.17 0.17 0.18 0.18 0.19 0.19 0.20 0.21 0.21 0.21 0.22 0.22 0.21 0.21 0.20 0.18 0.16 0.14 0.13 0.12 0.11 0.11 0.10 0.10 0.09 0.09 0.09 0.09 0.09 0.08 0.08 0.08 0.07 0.07 0.07 0.07 0.07 0.07 0.08 0.08 0.09 0.10 0.11 0.12 0.12 0.12 0.11 0.11 0.11 0.11 0.10 0.10 0.10
0.11 0.09 0.09 0.07 0.10 0.09 0.08 0.10 0.13 0.16 0.16 0.17 0.18 0.16 0.17 0.16 0.16 0.17 0.17 0.16 0.15 0.16 0.17 0.16 0.15 0.16 0.16 0.16 0.16 0.16 0.16 0.16 0.17 0.18 0.18 0.18 0.19 0.19 0.20 0.21 0.22 0.22 0.21 0.21 0.21 0.21 0.20 0.18 0.15 0.13 0.12 0.11 0.11 0.11 0.11 0.10 0.10 0.09 0.08 0.08 0.08 0.08 0.08 0.07 0.07 0.07 0.07 0.07 0.07 0.08 0.08 0.09 0.11 0.12 0.13 0.13 0.12 0.12 0.11 0.11 0.11 0.10 0.10 0.10 0.10 0.10
0.12 0.12 0.13 0.13 0.12 0.14 0.14 0.13 0.13 0.13 0.12 0.13 0.16 0.17 0.15 0.14 0.14 0.16 0.16 0.15 0.15 0.16 0.16 0.16 0.16 0.16 0.16 0.17 0.16 0.17 0.17 0.17 0.18 0.18 0.18 0.19 0.20 0.21 0.22 0.22 0.23 0.23 0.22 0.21 0.21 0.20 0.18 0.16 0.14 0.12 0.10 0.10 0.11 0.10 0.10 0.10 0.09 0.08 0.08 0.08 0.08 0.08 0.08 0.07 0.07 0.07 0.07 0.08 0.08 0.10 0.12 0.13 0.13 0.13 0.13 0.12 0.12 0.11 0.11 0.11 0.10 0.10 0.10 0.11 0.11 0.11
0.12 0.12 0.12 0.12 0.12 0.12 0.09 0.11 0.12 0.12 0.12 0.14 0.15 0.16 0.17 0.17 0.16 0.16 0.15 0.16 0.16 0.16 0.16 0.16 0.16 0.16 0.16 0.17 0.17 0.17 0.18 0.19 0.18 0.18 0.19 0.19 0.20 0.21 0.22 0.22 0.22 0.21 0.21 0.20 0.19 0.18 0.15 0.14 0.12 0.11 0.10 0.09 0.10 0.10 0.10 0.09 0.09 0.08 0.08 0.08 0.08 0.08 0.08 0.07 0.07 0.08 0.08 0.10 0.12 0.13 0.13 0.13 0.12 0.12 0.12 0.12 0.12 0.11 0.11 0.11 0.11 0.12 0.12 0.12 0.12 0.12
0.10 0.13 0.12 0.13 0.13 0.12 0.11 0.12 0.12 0.14 0.14 0.15 0.15 0.15 0.15 0.16 0.16 0.17 0.17 0.17 0.17 0.17 0.17 0.17 0.17 0.17 0.18 0.18 0.18 0.18 0.18 0.19 0.19 0.18 0.19 0.20 0.20 0.21 0.21 0.21 0.21 0.20 0.20 0.19 0.18 0.16 0.14 0.12 0.11 0.10 0.10 0.09 0.10 0.09 0.09 0.08 0.08 0.08 0.08 0.08 0.08 0.08 0.08 0.08 0.08 0.10 0.12 0.13 0.13 0.13 0.13 0.13 0.12 0.12 0.12 0.12 0.11 0.11 0.12 0.13 0.13 0.13 0.13 0.13 0.13 0.13
0.13 0.14 0.11 0.13 0.12 0.14 0.16 0.15 0.14 0.14 0.14 0.14 0.15 0.16 0.16 0.17 0.18 0.17 0.18 0.18 0.17 0.16 0.17 0.18 0.18 0.17 0.18 0.18 0.18 0.19 0.18 0.19 0.20 0.20 0.20 0.20 0.20 0.21 0.21 0.20 0.20 0.20 0.19 0.17 0.16 0.14 0.12 0.11 0.11 0.10 0.10 0.09 0.09 0.09 0.08 0.08 0.08 0.08 0.08 0.08 0.08 0.08 0.08 0.09 0.12 0.13 0.13 0.13 0.13 0.13 0.13 0.13 0.12 0.12 0.11 0.11 0.12 0.13 0.14 0.13 0.13 0.13 0.13 0.14 0.14 0.14
0.14 0.11 0.12 0.15 0.13 0.12 0.11 0.11 0.13 0.11 0.11 0.12 0.14 0.16 0.17 0.17 0.17 0.17 0.17 0.17 0.17 0.17 0.17 0.17 0.18 0.18 0.19 0.19 0.19 0.19 0.19 0.19 0.20 0.20 0.20 0.20 0.20 0.20 0.20 0.20 0.20 0.19 0.18 0.16 0.15 0.13 0.12 0.11 0.10 0.10 0.09 0.09 0.08 0.08 0.07 0.07 0.08 0.08 0.08 0.08 0.08 0.09 0.10 0.13 0.14 0.13 0.13 0.13 0.13 0.13 0.13 0.12 0.12 0.12 0.12 0.13 0.13 0.13 0.14 0.14 0.14 0.14 0.14 0.14 0.14 0.15
0.13 0.11 0.13 0.13 0.12 0.11 0.12 0.14 0.15 0.15 0.15 0.14 0.15 0.17 0.18 0.18 0.18 0.17 0.17 0.17 0.18 0.18 0.18 0.18 0.18 0.18 0.18 0.19 0.20 0.20 0.19 0.19 0.19 0.20 0.19 0.20 0.20 0.20 0.20 0.20 0.19 0.18 0.16 0.15 0.13 0.12 0.11 0.11 0.10 0.10 0.09 0.08 0.08 0.07 0.07 0.07 0.07 0.08 0.08 0.08 0.09 0.12 0.14 0.14 0.14 0.13 0.13 0.13 0.13 0.13 0.12 0.12 0.12 0.13 0.13 0.13 0.14 0.14 0.13 0.13 0.14 0.14 0.14 0.15 0.15 0.15
Wind_Speed
25 27 28 27 27 28 28 28 29 30 30 31 30 30 31 31 30 30 30 28 24 26 29 29 30 30 30 30 29 30 27 24 23 22 22 22 22 21 19 18 17 16 16 16 16 15 15 16 16 17 17 17 17 17 17 17 18 18 19 19 20 20 21 21 22 22 23 24 24 25 27 28 30 31 32 34 35 35 36 36 36 36 36 37 37 37
26 28 29 28 29 29 29 28 29 30 30 31 30 30 30 29 30 30 30 28 24 25 28 29 30 31 30 30 30 28 24 21 22 22 22 22 21 19 18 16 15 14 14 13 13 13 13 14 15 15 16 16 15 16 16 17 18 18 18 18 19 19 20 20 21 22 22 23 24 24 25 27 28 29 30 32 33 34 35 36 37 37 37 38 38 38
28 30 30 30 29 29 28 28 29 30 31 30 29 29 28 28 30 30 28 26 23 25 28 29 30 30 30 30 27 23 20 20 22 22 21 21 19 17 16 14 13 12 12 11 11 12 12 13 14 14 14 14 15 16 17 18 18 19 19 19 19 19 20 20 21 22 22 23 23 24 24 25 26 27 28 30 31 32 34 35 36 37 38 38 38 39
29 29 29 30 29 29 29 29 29 29 29 28 28 27 28 28 28 27 25 23 24 27 29 30 30 29 28 26 23 19 19 21 22 20 19 18 17 15 13 12 12 12 12 11 11 12 12 13 14 14 14 14 16 17 18 18 19 20 20 20 20 20 20 21 21 22 23 23 23 24 24 24 25 26 27 28 30 31 33 34 35 36 37 38 39 39
32 29 27 28 29 29 30 29 28 27 27 27 27 28 29 29 28 28 27 26 28 28 27 27 27 26 23 22 20 18 20 23 21 19 18 17 15 13 11 11 11 11 12 12 13 14 14 14 15 16 16 16 17 18 19 19 20 20 21 21 21 20 20 21 22 23 23 23 23 24 24 25 26 26 27 28 29 30 32 33 34 35 36 37 38 39
32 29 26 26 27 27 28 27 26 26 27 27 27 28 28 28 28 28 28 28 28 26 23 23 25 24 21 21 22 20 23 25 20 17 16 15 15 13 12 12 12 11 12 13 14 15 16 16 17 17 18 18 19 20 20 20 20 21 21 22 22 22 22 22 22 22 23 24 25 25 25 26 27 27 28 28 29 30 31 32 33 34 35 36 37 38
28 25 23 24 25 25 25 26 25 25 27 27 26 25 26 27 27 28 28 27 27 26 25 25 26 26 24 25 26 25 26 24 18 16 15 14 14 14 14 14 13 13 13 14 15 16 17 17 18 19 19 20 21 21 21 21 21 22 22 23 23 23 23 23 23 23 23 24 26 26 26 27 28 28 29 29 30 30 31 31 32 33 34 35 36 37
24 22 21 22 23 24 25 25 24 24 26 27 25 24 25 26 27 27 28 28 28 29 30 28 27 29 29 28 27 26 27 24 18 16 15 15 15 15 15 14 14 15 16 17 18 18 18 18 19 20 21 22 22 22 22 22 22 22 23 23 24 24 24 24 24 24 24 25 26 26 27 27 28 29 29 30 30 31 32 32 32 33 34 35 36 37
21 21 22 22 23 25 25 24 23 24 26 26 25 26 26 27 28 28 29 30 30 31 31 28 26 28 30 28 25 24 26 23 19 17 17 17 17 16 16 16 16 17 18 19 21 21 21 21 21 22 22 23 24 24 23 22 22 22 22 23 23 24 24 25 25 25 26 26 27 27 27 28 29 29 30 30 31 32 32 33 33 34 34 35 35 36
22 22 23 23 24 25 25 23 24 25 26 25 26 27 27 28 29 29 31 31 31 31 32 29 27 27 30 27 24 24 25 23 19 19 19 18 18 19 19 19 19 20 22 23 24 24 24 24 25 25 25 25 25 25 24 23 23 22 23 23 23 23 24 24 25 26 26 27 27 28 28 28 29 30 30 31 31 32 32 33 34 34 35 35 36 37
23 22 24 25 26 25 24 24 25 26 26 26 27 29 30 31 31 31 31 30 30 31 33 31 28 28 28 25 23 23 23 22 20 20 20 20 20 21 21 21 22 24 25 26 27 27 27 27 28 28 27 27 27 27 26 25 24 24 23 23 23 23 24 24 25 25 26 27 27 28 29 29 29 30 30 31 32 32 33 33 34 34 35 36 37 38
25 25 25 26 25 25 25 26 26 26 26 27 29 30 30 30 29 29 28 27 28 31 30 27 26 28 28 25 24 23 22 22 22 21 21 21 21 22 23 24 26 28 29 29 30 29 29 30 30 28 28 28 28 28 28 27 26 25 25 25 25 25 25 26 26 26 27 27 28 28 29 28 29 30 30 31 31 32 33 33 34 35 35 36 37 38
26 27 27 26 26 26 27 27 27 27 27 28 29 29 28 28 28 28 27 26 28 28 25 24 26 29 32 30 28 26 23 23 24 24 24 24 24 24 26 28 29 30 31 32 32 31 31 31 30 29 29 29 29 29 28 28 27 27 27 27 27 27 28 28 28 28 28 29 29 29 29 29 29 30 30 31 31 32 32 33 34 35 36 36 37 38
28 27 27 27 27 27 27 27 27 27 27 27 27 27 26 27 28 28 28 28 29 28 25 26 28 30 33 32 30 28 26 26 26 26 26 26 26 27 29 31 31 32 32 32 33 32 31 30 30 30 30 30 30 30 29 29 28 28 29 29 30 30 30 30 30 30 30 29 29 29 29 29 30 30 31 31 32 32 33 33 34 35 36 36 37 38
29 29 27 26 26 26 27 28 28 27 27 28 28 27 28 28 28 29 29 29 31 31 29 28 29 31 31 29 28 27 27 28 28 28 28 29 30 31 31 32 32 32 33 33 33 32 30 30 31 31 31 31 31 30 30 30 30 31 31 31 32 32 32 31 31 31 30 30 30 30 30 30 31 31 31 32 32 33 33 34 34 35 36 37 38 38
29 30 27 26 27 27 28 28 28 27 28 29 28 28 29 30 30 30 31 33 34 34 34 32 33 35 34 31 30 30 29 29 30 31 32 32 32 32 31 31 32 32 32 32 32 32 31 32 33 33 33 32 32 32 32 32 33 33 33 33 33 33 33 32 32 31 31 31 31 31 32 32 32 32 32 33 33 34 34 34 35 35 36 36 37 38
28 28 26 27 28 27 28 28 27 28 28 27 27 29 30 30 30 31 33 34 34 35 35 35 37 38 36 32 31 31 31 31 32 33 33 32 32 31 31 31 32 32 33 33 33 33 34 34 34 34 34 33 34 34 34 34 35 35 36 36 35 35 34 34 34 34 33 33 33 33 33 33 33 33 34 34 35 35 35 35 35 35 36 36 36 37
29 31 30 30 30 28 28 30 30 30 30 29 29 29 29 29 30 30 32 33 33 34 35 36 39 38 35 32 30 31 32 33 34 33 32 32 31 30 31 32 33 34 34 34 34 35 35 34 34 34 35 35 35 36 36 36 37 37 37 37 37 37 36 36 36 36 36 36 36 36 36 35 35 35 35 35 36 36 36 36 36 36 37 37 37 36
30 32 33 32 32 30 29 31 32 31 30 31 30 29 30 30 30 30 30 30 31 33 33 35 38 37 36 35 34 33 32 33 34 33 32 33 32 33 34 35 35 36 36 36 36 35 35 35 35 35 36 36 37 37 37 38 38 38 38 38 38 37 37 37 37 37 37 37 38 37 37 37 37 37 37 37 37 37 37 37 37 37 37 38 38 38
29 31 33 33 32 30 29 31 32 30 29 30 31 31 32 32 33 33 32 31 32 33 33 34 35 35 35 36 35 33 31 32 33 33 33 33 34 35 36 36 37 37 37 37 37 36 36 36 37 37 38 38 39 39 39 39 39 39 39 39 38 38 38 38 38 38 38 38 38 39 39 39 39 39 39 38 38 38 38 38 38 38 38 38 38 39
31 31 33 33 31 31 31 31 32 31 30 30 30 31 31 31 31 32 33 33 33 34 34 33 34 35 34 34 34 33 32 33 33 33 34 35 35 36 37 37 37 36 37 37 37 38 38 38 38 39 40 40 40 41 41 40 40 40 41 40 40 39 39 38 38 38 39 39 39 39 39 40 40 40 40 40 40 40 40 40 39 39 39 39 39 39
31 31 33 33 32 34 34 32 32 33 33 32 32 31 31 32 32 32 33 33 33 34 34 34 36 36 34 34 34 34 34 34 35 35 35 36 36 36 36 36 36 36 36 37 38 39 39 40 41 41 42 42 42 42 42 42 42 42 42 42 42 42 41 40 40 39 39 39 39 40 40 40 41 41 41 41 41 41 41 41 41 41 40 40 41 41
31 32 34 36 36 38 39 38 37 37 36 35 35 34 34 34 34 34 34 34 34 35 36 36 37 36 34 34 35 34 34 34 35 36 35 36 36 36 36 36 37 37 38 38 39 40 41 41 42 42 42 42 42 42 42 42 43 43 43 42 42 42 42 42 41 41 41 41 41 41 41 41 42 42 42 42 42 42 42 42 43 43 43 43 43 44
31 32 34 35 36 38 39 39 38 36 35 35 35 35 35 35 35 35 35 35 34 35 36 36 38 36 34 33 33 33 34 34 36 36 36 37 37 37 38 39 39 40 40 40 40 41 41 41 41 42 42 42 42 43 43 43 43 43 43 43 43 42 42 42 42 42 42 42 42 42 42 42 42 43 43 43 43 43 43 43 43 44 45 45 45 45
31 32 32 33 33 34 35 35 34 32 31 31 32 32 32 33 34 34 34 35 34 35 36 36 37 35 33 32 34 35 35 36 36 37 37 38 39 39 40 40 40 40 40 40 41 41 41 42 42 42 43 43 44 44 44 44 44 43 43 43 43 43 43 42 42 42 42 42 42 42 42 43 43 44 44 44 44 44 44 44 45 46 46 46 46 46
32 33 33 33 33 34 34 33 32 30 30 30 31 32 33 34 35 34 34 35 35 37 38 37 38 37 35 36 37 38 38 39 38 38 39 40 40 40 39 39 40 40 41 42 42 42 43 43 43 43 44 44 44 44 44 44 44 44 43 43 43 42 42 42 42 43 43 43 43 43 43 44 44 45 46 46 46 46 46 47 47 48 48 48 47 47
33 34 35 36 37 38 38 38 37 37 37 37 38 38 39 39 39 38 38 39 40 40 40 41 42 43 42 43 43 41 41 42 41 41 41 41 41 42 42 43 44 45 46 46 46 46 46 46 46 45 45 45 45 45 45 45 44 44 43 43 43 43 44 44 44 45 45 45 45 46 46 47 47 48 48 48 49 49 49 50 50 50 49 49 49 48
35 36 38 39 40 41 42 43 43 43 42 42 42 43 43 42 42 41 43 44 42 41 42 43 44 45 45 45 45 43 41 42 43 43 44 45 45 46 46 47 48 48 48 48 48 49 48 48 48 47 47 47 46 46 46 46 45 45 45 45 45 45 46 46 47 47 48 48 49 49 50 50 51 52 52 52 52 52 52 52 53 53 52 52 52 51
35 37 39 40 41 43 44 44 44 43 43 43 43 44 44 44 44 45 46 46 44 43 44 44 45 48 47 47 49 47 45 44 45 45 45 46 46 46 46 47 48 48 48 48 48 48 48 48 48 48 47 47 47 47 47 47 47 47 47 47 48 48 48 48 49 50 50 51 52 52 52 53 54 55 55 55 55 55 55 55 56 56 56 56 55 55
35 37 39 40 41 43 44 44 44 43 43 44 44 45 45 46 47 47 47 47 46 47 48 48 50 51 51 50 51 48 45 44 44 44 44 44 45 45 46 47 47 47 47 47 47 46 46 46 46 47 47 47 47 47 47 47 47 48 48 49 49 50 50 50 51 52 52 53 54 54 55 56 56 56 56 57 57 57 57 57 58 58 58 58 58 57
36 37 37 37 39 41 42 44 43 42 43 44 44 45 46 47 47 47 46 46 47 48 49 50 52 51 49 48 47 44 42 42 43 43 44 44 45 45 46 46 47 47 47 46 46 46 46 46 46 46 46 46 47 47 47 47 48 48 49 49 50 51 51 52 52 53 54 55 56 56 57 57 58 57 58 58 58 59 59 59 59 59 59 59 59 59
35 37 36 36 38 39 40 41 41 41 41 43 45 47 48 48 47 46 46 46 47 48 50 51 50 49 46 44 43 42 42 42 43 44 44 45 44 45 46 46 46 46 46 46 46 46 46 46 46 46 46 46 47 47 47 48 48 49 49 50 50 51 52 53 54 55 56 56 57 58 58 58 59 59 59 59 59 60 60 60 60 60 60 60 60 60
35 36 35 36 37 37 39 40 39 38 39 43 45 46 46 47 47 47 46 46 47 48 49 49 47 45 43 41 41 42 42 43 43 44 44 44 44 44 45 45 45 45 45 45 45 45 45 45 45 45 46 46 47 47 48 48 49 50 50 51 51 52 53 54 55 56 57 58 58 59 59 59 60 60 60 60 61 61 61 61 61 61 61 62 62 62
38 37 38 37 37 38 41 41 38 37 40 43 43 43 45 47 47 47 47 47 48 47 46 44 43 42 42 42 43 43 43 43 44 44 44 43 43 43 43 44 44 44 44 44 44 44 44 44 45 45 46 46 47 48 49 49 50 51 51 52 53 54 55 56 57 57 58 59 59 60 60 61 61 62 62 62 62 63 63 63 63 63 63 63 63 64
40 39 39 39 38 40 41 39 38 40 41 42 41 41 43 45 44 46 48 49 48 47 46 45 43 42 42 42 42 43 43 43 44 44 43 42 42 42 42 42 42 42 42 43 43 43 43 44 45 45 46 46 47 48 49 50 50 51 52 53 54 55 56 57 58 59 59 60 61 61 61 62 63 63 64 64 64 64 65 65 65 65 65 65 65 66
40 40 39 39 38 39 39 38 40 41 41 41 41 41 42 42 43 45 47 46 45 45 46 45 43 40 40 40 40 41 42 42 43 43 42 41 41 41 41 41 41 41 41 42 42 43 43 44 45 45 46 47 48 48 49 50 50 51 52 54 55 56 57 58 59 60 60 61 61 62 62 63 64 64 65 65 66 66 67 67 67 68 68 68 68 68
38 38 37 37 37 38 39 40 42 43 43 42 42 40 40 40 41 42 43 43 42 42 43 42 39 39 39 39 39 39 39 39 40 40 40 39 38 38 38 39 39 40 41 42 42 43 43 44 44 45 46 46 47 48 48 49 50 51 53 54 55 56 57 58 59 60 60 61 62 62 63 63 64 65 66 66 67 68 68 69 70 70 70 70 70 71
37 37 36 37 37 37 39 40 40 41 41 40 38 37 37 38 38 39 41 42 41 41 41 38 36 36 36 36 36 35 35 35 36 36 36 35 35 35 36 37 39 40 40 41 41 42 43 43 43 44 45 45 46 46 47 48 49 50 52 53 54 55 56 57 58 59 60 61 62 62 63 64 64 65 66 67 68 69 70 70 71 71 71 72 72 73
36 36 36 37 38 38 39 39 39 39 39 37 37 37 36 37 37 37 40 42 40 38 37 34 32 33 33 34 34 33 33 35 35 35 34 34 35 36 36 37 39 39 40 40 41 41 41 41 42 43 43 44 45 45 46 47 48 49 51 52 53 54 55 56 58 59 60 61 62 62 63 64 65 66 67 68 69 69 70 70 71 71 71 72 72 73
35 35 36 38 39 39 39 39 39 40 39 37 37 37 36 37 37 37 39 39 36 34 32 31 30 31 32 33 33 33 34 36 36 36 36 36 37 37 37 38 39 39 39 40 39 39 39 40 41 42 42 43 44 44 45 46 47 49 50 51 53 54 55 56 58 59 60 61 62 63 64 66 66 67 68 68 69 69 70 70 70 71 71 71 72 73
34 35 36 37 39 40 40 40 40 40 40 40 39 37 36 36 36 37 37 35 31 31 32 31 31 32 33 33 34 35 36 37 38 39 39 39 38 38 38 38 38 38 38 37 37 37 38 39 40 40 41 42 43 44 45 46 48 49 50 51 53 54 55 57 58 59 61 62 63 65 66 67 67 68 68 68 69 69 70 69 70 70 71 71 71 72
34 34 35 37 38 38 38 40 40 40 40 39 36 34 34 34 34 34 33 31 30 31 32 31 32 33 33 34 36 37 38 39 40 40 39 39 38 37 37 37 37 37 36 36 36 37 38 39 39 40 41 41 42 44 45 46 48 49 50 52 53 55 56 58 60 61 63 64 65 66 66 67 67 67 67 68 68 69 69 69 69 70 70 70 71 71
34 34 36 37 36 36 37 37 37 37 37 34 32 31 32 33 33 32 31 30 30 31 31 32 34 34 35 36 37 38 39 39 39 39 38 38 37 36 37 37 36 36 36 36 37 37 38 39 39 40 41 41 42 44 45 46 48 49 51 52 54 56 58 60 62 63 64 65 65 66 66 66 66 66 66 67 67 67 68 68 68 68 69 69 70 71
35 35 36 36 35 35 36 36 34 34 34 31 31 31 32 33 34 33 32 33 33 33 33 34 35 36 36 37 37 38 38 38 38 37 37 37 36 36 36 36 35 35 36 37 37 37 38 39 39 40 41 41 42 44 45 47 49 50 52 54 56 58 60 61 63 64 64 64 64 64 65 64 64 64 64 65 65 65 66 67 67 67 68 68 68 69
34 35 36 37 36 36 37 38 36 35 34 33 34 35 34 35 36 35 35 35 35 35 35 35 36 37 36 36 36 36 36 36 36 36 36 36 36 36 35 35 35 36 37 37 37 37 38 39 40 41 41 42 43 44 46 47 49 52 54 56 57 59 61 62 63 63 63 63 63 63 63 63 63 63 63 63 63 64 65 65 65 65 65 65 65 65
36 37 37 37 37 38 39 40 38 37 38 38 37 36 36 36 36 35 35 35 35 34 34 35 36 36 35 35 35 35 35 36 36 37 37 36 36 35 35 35 36 36 37 37 37 38 38 39 40 41 42 43 43 44 46 48 50 53 56 57 58 60 61 62 62 62 62 62 62 61 61 62 62 62 62 62 61 61 62 62 63 62 61 60 60 60
36 37 37 37 37 37 37 37 36 36 37 37 36 35 35 35 35 34 33 34 34 34 34 34 34 35 34 34 35 35 36 36 36 36 36 35 35 35 36 36 36 36 36 37 37 38 38 39 40 41 42 43 44 45 48 50 52 54 56 58 59 60 61 61 61 61 61 60 60 60 60 60 60 60 59 59 59 59 59 59 58 56 55 54 55 55
33 33 35 35 35 35 36 36 36 36 36 36 35 34 34 34 34 33 33 33 33 33 34 33 33 34 34 35 35 36 36 36 36 36 35 35 35 36 36 36 36 36 36 37 37 38 38 39 40 41 43 44 46 47 50 52 53 55 57 59 59 59 60 60 59 59 58 58 58 58 58 57 57 57 57 57 57 56 55 53 51 51 50 50 51 51
32 32 33 32 32 33 34 35 35 34 35 35 34 33 33 33 33 33 33 33 33 33 33 33 34 34 35 36 36 36 36 36 36 36 36 36 36 36 36 36 36 36 36 36 37 37 38 39 41 42 44 46 47 49 51 52 54 56 57 58 58 58 57 57 56 56 56 56 56 55 55 55 55 55 55 55 53 51 49 48 48 49 49 49 49 49
32 33 32 30 31 33 33 32 32 32 33 33 32 32 32 32 32 33 32 32 32 33 34 34 34 34 35 36 36 36 36 36 36 35 36 36 36 36 36 36 36 36 36 36 37 38 39 40 41 43 45 46 48 50 51 53 54 56 56 56 56 55 54 54 53 53 53 53 53 53 54 54 54 53 52 50 48 47 47 47 47 48 48 48 48 49
31 33 32 31 32 34 33 32 31 32 33 34 33 33 33 32 32 32 32 33 33 34 34 34 35 35 35 35 35 36 36 36 35 35 35 35 35 35 36 36 36 36 36 37 38 38 39 40 42 44 45 47 48 50 51 53 54 55 54 53 52 51 51 51 51 51 51 52 52 52 52 52 51 49 47 46 45 46 46 46 46 46 46 46 47 47
Wind_Direction
273 273 272 273 276 277 275 273 275 277 279 282 283 282 282 284 284 286 288 289 291 289 287 288 289 289 291 292 292 291 291 289 287 285 284 285 287 284 283 286 290 291 291 293 296 300 301 300 298 295 293 293 293 293 293 293 292 289 286 283 281 277 273 271 270 269 268 268 267 266 264 263 262 260 259 259 258 258 258 257 256 256 255 254 253 253
274 272 271 273 276 277 277 278 278 278 279 280 281 281 281 282 283 286 287 288 290 289 288 290 290 290 292 292 290 289 287 286 289 290 287 287 287 284 285 289 291 290 289 294 299 303 306 306 304 300 298 297 296 296 297 298 296 293 290 286 283 280 277 275 273 272 271 271 270 269 268 266 265 263 262 261 261 260 259 258 257 257 256 255 254 254
273 272 272 273 275 277 277 279 279 278 278 278 278 279 280 282 285 287 287 287 289 289 289 292 292 292 293 291 290 287 282 289 295 295 292 289 287 286 288 290 291 293 294 299 304 308 312 313 310 306 302 298 295 296 298 298 298 297 293 289 285 281 279 278 276 275 274 273 273 272 272 271 268 267 265 263 262 262 261 260 259 258 257 256 255 255
272 274 274 274 276 277 277 278 277 277 277 276 276 277 279 283 286 288 288 288 288 287 289 292 291 292 292 289 289 281 279 292 297 295 296 294 290 290 290 289 290 295 296 298 304 308 310 313 313 310 305 298 295 297 298 297 298 297 295 292 287 283 281 280 279 278 277 276 275 274 274 273 271 270 268 266 265 263 263 262 261 259 258 257 256 256
271 275 277 276 276 276 277 277 276 276 277 275 274 276 279 283 284 285 288 290 290 288 287 290 291 292 292 290 286 277 283 294 292 291 296 296 294 294 288 287 292 292 291 296 302 305 307 309 310 309 306 301 299 299 299 298 297 295 295 293 289 285 283 282 281 280 279 278 278 277 275 274 272 272 271 269 267 265 264 264 263 261 259 258 257 257
271 275 277 275 274 274 274 275 274 275 277 277 276 277 280 283 284 286 288 290 291 288 286 290 293 291 292 292 285 280 291 294 288 289 294 295 297 295 289 289 291 291 291 297 299 301 306 308 307 307 307 305 303 302 299 297 296 294 293 292 290 288 286 285 285 283 281 280 281 279 277 276 274 273 272 271 270 268 267 266 265 263 261 260 259 258
272 276 277 274 272 272 271 273 274 274 276 277 278 281 282 282 284 286 287 287 287 287 285 288 290 287 287 290 283 281 289 287 281 287 289 290 293 292 292 292 293 292 289 292 295 300 306 308 307 307 306 305 304 302 299 297 296 295 293 292 290 288 286 286 285 284 282 282 282 280 279 277 275 275 274 273 272 271 269 268 266 265 264 262 261 260
271 272 273 271 270 270 271 274 275 273 273 276 280 283 282 282 283 284 285 285 284 286 285 282 282 283 286 289 282 278 283 276 272 283 286 287 289 289 292 291 294 294 290 291 294 299 307 309 308 306 305 304 303 301 300 297 296 295 294 292 290 288 287 285 284 282 281 281 281 280 279 278 276 276 275 274 274 273 272 270 268 267 265 264 263 262
271 269 269 268 269 271 272 277 278 273 273 277 280 282 282 282 282 282 283 284 284 286 284 278 277 282 287 289 283 278 277 268 266 278 279 281 286 289 288 286 289 292 294 295 295 298 304 307 308 306 304 302 301 300 299 297 295 294 293 292 290 289 287 286 285 282 281 280 280 279 278 277 276 275 276 275 274 274 274 272 270 269 267 266 264 264
273 272 272 271 271 274 275 279 281 276 275 279 280 280 281 280 280 281 281 283 284 281 279 276 273 281 289 287 280 278 274 264 265 274 274 276 283 287 287 284 286 289 293 294 295 298 301 302 304 303 301 300 299 297 296 295 293 292 292 292 292 290 288 287 286 284 283 282 281 280 280 279 277 276 276 275 275 274 273 273 272 270 269 268 266 265
273 274 276 273 273 276 278 279 280 279 279 280 280 281 281 280 279 280 279 281 281 277 278 274 267 275 287 284 277 279 274 266 267 271 271 276 282 286 285 284 286 290 292 292 293 297 299 300 301 299 298 297 296 295 294 293 292 291 291 290 291 291 289 288 288 287 286 285 284 283 282 281 279 278 277 277 276 275 274 274 273 272 271 269 268 267
272 272 274 274 275 277 277 277 277 278 279 279 279 281 283 281 279 278 277 276 276 278 281 275 266 269 277 279 278 278 272 268 271 270 269 275 280 283 283 283 288 291 291 291 293 295 298 299 298 296 296 296 294 294 294 293 292 292 292 291 291 292 290 289 289 288 288 287 286 285 285 284 282 281 280 279 278 278 276 275 274 273 273 272 270 269
273 271 272 274 275 273 274 276 276 276 276 276 277 278 279 280 279 277 275 274 275 279 280 275 271 271 273 275 275 274 271 271 274 275 273 275 278 279 279 282 286 289 289 291 292 294 295 296 295 294 294 294 294 295 294 294 293 292 293 292 292 292 292 291 290 290 290 289 288 287 286 285 284 283 281 280 280 279 278 277 276 275 273 273 273 272
278 276 272 273 275 270 269 274 276 277 275 273 274 274 273 277 278 277 277 276 276 277 277 276 275 275 277 277 272 270 272 274 275 276 276 277 278 278 279 282 285 287 289 290 290 291 292 292 291 291 292 292 292 293 292 292 291 290 291 291 292 292 292 292 292 292 291 290 289 288 287 286 285 284 283 281 281 279 279 278 277 277 275 274 273 273
277 278 274 272 276 270 267 272 276 279 276 272 273 273 271 273 275 276 277 277 278 279 278 276 275 277 280 280 277 274 275 275 275 275 276 278 279 279 280 283 285 287 288 288 289 289 289 288 288 288 288 289 290 290 290 290 289 289 289 290 291 291 291 291 290 290 290 289 289 289 288 288 286 286 285 283 282 281 280 279 278 278 276 275 274 273
273 276 277 277 278 274 271 274 276 277 276 274 274 272 272 274 274 276 276 276 279 280 277 273 274 277 279 279 278 277 277 276 276 277 278 280 279 280 282 284 285 287 287 287 288 288 287 287 286 286 286 287 287 288 288 289 289 289 289 290 290 290 290 289 288 288 288 287 288 288 289 288 287 286 285 284 284 283 282 281 280 279 278 277 275 274
274 275 277 279 278 276 277 279 277 275 276 276 274 273 275 276 276 276 277 277 277 277 275 274 275 278 279 277 276 277 278 278 278 279 280 280 280 281 283 284 285 286 286 287 287 286 286 286 285 285 285 286 287 287 288 288 288 288 289 289 289 289 288 288 287 286 286 286 286 287 288 287 287 286 285 283 283 282 281 281 280 279 279 278 277 276
276 275 276 277 277 277 278 280 277 274 274 274 274 276 279 277 275 275 277 277 276 275 275 275 276 277 278 277 277 277 277 279 279 280 280 280 281 283 284 285 285 285 285 285 285 285 285 285 285 285 286 287 287 288 288 288 288 287 287 287 288 288 287 287 286 285 284 284 284 285 285 285 285 284 284 283 282 281 280 279 278 278 278 277 277 276
278 278 277 276 277 278 278 278 277 274 273 274 276 277 278 276 275 275 275 277 277 276 277 276 276 276 276 277 280 277 276 278 278 279 281 281 282 283 285 285 285 284 284 284 284 284 284 284 285 286 287 288 288 288 289 289 288 288 287 287 287 287 286 286 285 284 283 282 282 282 282 283 283 283 282 282 281 280 280 279 278 277 277 277 276 276
278 278 278 277 276 277 277 276 276 275 275 277 277 275 274 275 276 275 274 275 276 277 279 278 276 276 276 281 283 280 277 277 277 279 281 282 283 283 284 284 283 283 282 282 282 282 283 284 284 286 287 287 288 288 289 289 289 288 288 287 287 286 286 285 285 283 282 282 281 281 281 280 281 281 281 280 280 280 279 279 278 277 277 276 276 276
278 276 277 278 276 275 276 275 275 276 276 275 275 273 273 274 276 276 274 273 274 276 278 278 277 276 278 283 283 281 279 279 279 280 281 282 282 283 283 282 281 281 280 281 281 281 282 283 284 285 286 286 286 287 287 288 288 288 288 287 287 286 286 286 285 284 282 282 281 281 280 280 280 280 280 280 280 280 279 278 278 277 277 277 276 276
278 276 276 277 276 275 276 277 277 278 278 276 275 273 274 275 276 277 275 272 272 273 275 277 278 277 279 282 282 281 281 282 281 281 281 281 281 281 281 281 281 281 281 282 282 283 284 285 286 287 287 287 286 286 286 286 287 287 287 286 286 285 285 285 285 283 282 281 281 281 281 280 280 279 280 280 280 280 279 278 278 278 278 277 277 277
278 278 276 276 276 276 277 278 278 278 278 276 275 274 274 275 274 274 275 276 275 274 275 276 277 278 280 281 281 282 282 282 282 281 280 280 281 281 281 281 282 283 283 284 284 284 284 285 286 286 286 286 286 286 286 286 286 286 285 286 285 285 285 285 284 284 282 281 281 281 280 281 280 280 280 280 280 280 280 279 278 278 278 278 278 278
277 276 275 276 276 277 277 277 277 278 277 275 274 275 274 273 273 273 275 278 278 276 277 277 276 277 280 280 280 281 282 281 279 279 278 278 280 281 282 283 284 284 284 284 284 284 284 285 285 285 285 285 286 286 287 287 287 286 286 286 286 285 285 285 284 284 283 282 282 281 280 281 280 280 281 281 281 281 281 280 279 279 279 279 279 279
276 274 275 277 278 278 278 277 277 278 278 276 276 277 276 277 277 276 275 276 275 273 273 275 276 278 279 279 279 279 278 277 277 277 277 278 279 280 281 282 282 282 282 283 283 284 284 284 285 285 285 285 286 287 287 288 288 287 287 286 286 285 284 283 283 283 283 282 282 282 282 281 281 281 281 281 281 281 281 280 280 280 280 279 279 278
274 273 274 275 276 276 277 277 278 279 279 278 278 278 278 278 278 278 277 276 274 273 272 273 276 278 278 277 278 277 276 276 276 276 277 277 277 277 277 278 279 279 280 281 282 283 284 284 284 285 285 285 285 286 287 287 287 286 285 285 284 283 283 282 282 283 283 282 282 282 282 282 282 281 281 281 281 281 280 280 280 280 280 279 278 277
273 273 272 272 273 274 275 276 278 280 279 279 279 277 277 277 277 277 277 274 275 278 276 274 277 279 278 279 278 277 276 276 276 275 275 275 274 274 275 275 277 278 278 279 280 281 281 282 282 282 282 283 283 284 285 285 285 284 283 283 282 282 282 281 282 282 282 282 282 282 282 283 283 282 281 281 281 280 280 280 280 280 279 279 278 277
273 273 272 272 272 273 274 276 277 278 277 277 278 277 276 276 275 274 273 274 277 279 277 277 279 280 280 281 281 280 278 276 276 275 274 274 274 274 275 275 276 277 277 278 278 278 279 279 279 279 279 280 281 282 282 282 282 282 281 281 281 281 281 281 282 282 282 282 282 282 283 283 283 283 282 282 281 280 280 280 280 280 279 278 278 277
274 274 274 274 274 274 275 276 276 276 276 276 276 276 276 275 274 274 274 275 277 277 278 280 281 280 281 282 282 282 280 277 276 276 275 275 275 274 275 275 276 276 277 277 277 277 277 277 278 278 278 279 279 280 280 280 280 280 280 281 281 282 282 282 282 282 283 283 283 283 283 283 284 284 283 282 282 281 280 281 281 280 279 278 278 276
274 275 276 276 275 275 276 276 277 277 276 276 275 275 275 275 275 275 276 277 277 277 279 281 280 280 282 283 282 282 280 278 277 277 277 276 276 275 275 275 276 276 276 277 277 277 277 277 278 278 279 279 279 280 280 280 280 280 281 281 281 282 283 283 283 283 283 283 283 283 284 284 284 284 283 282 282 282 281 281 281 280 279 278 277 276
275 276 278 278 277 276 276 277 277 276 276 276 275 274 275 275 276 276 277 278 279 279 280 280 280 280 282 283 283 282 280 279 278 278 278 277 276 276 276 276 275 275 276 276 276 277 277 277 278 278 279 279 280 280 280 281 281 282 282 282 282 283 283 283 284 284 284 284 284 284 284 284 284 284 283 283 283 282 282 282 281 280 279 279 277 276
276 277 278 279 277 277 277 278 278 279 278 276 274 274 274 275 277 277 277 278 279 280 282 281 281 282 284 284 282 281 280 280 279 279 279 278 277 277 276 276 275 275 275 276 276 276 277 277 278 278 279 280 280 281 281 281 282 283 283 283 283 284 284 284 284 284 285 285 285 285 285 285 284 284 283 283 283 282 282 282 281 281 280 279 278 277
275 276 277 278 278 278 277 279 282 282 279 276 274 275 276 277 278 278 278 278 279 281 282 282 282 284 285 284 283 282 281 281 281 280 280 279 279 278 277 276 276 275 275 276 276 276 277 277 278 279 279 280 281 281 282 282 283 283 283 284 284 285 285 285 285 285 285 285 285 285 285 285 285 284 284 283 283 282 282 282 281 281 280 279 278 277
274 275 276 277 278 279 279 281 281 277 275 276 278 278 278 279 279 279 279 280 280 281 282 282 283 283 283 283 282 282 282 282 282 282 281 280 279 279 278 277 277 276 276 276 277 277 278 278 279 280 280 281 281 282 283 283 283 284 284 285 285 286 286 286 286 286 286 286 286 286 285 285 285 284 284 283 282 282 282 281 281 280 280 279 278 277
274 275 276 276 277 278 280 280 277 273 275 281 283 281 281 282 282 281 281 281 282 282 282 283 283 282 282 283 283 283 283 283 283 282 281 280 278 278 278 278 277 277 277 277 278 279 280 280 281 281 282 282 283 284 284 284 284 284 285 285 286 287 287 287 287 287 287 287 286 286 286 286 285 285 284 283 283 282 282 281 280 280 279 278 277 276
274 275 276 276 275 277 278 275 273 277 280 281 281 282 283 283 283 283 282 282 282 282 282 284 284 282 283 284 284 284 284 283 282 282 280 278 277 278 278 278 278 278 279 279 280 281 281 282 282 282 283 284 284 285 285 285 285 285 286 287 287 288 288 288 287 287 287 287 287 287 287 286 286 286 285 284 283 283 282 282 281 280 279 278 277 276
273 274 275 275 274 275 275 274 276 280 281 280 280 283 284 284 284 285 284 283 283 283 283 284 283 282 283 283 283 282 282 282 282 281 280 277 276 278 279 279 280 281 281 281 281 281 282 282 282 283 284 285 286 286 286 286 286 287 287 288 288 289 289 289 288 288 288 288 288 288 287 287 287 286 286 285 284 284 283 282 282 281 280 279 277 276
272 272 273 275 275 275 276 277 278 279 280 281 283 286 288 288 288 287 285 284 284 284 283 282 281 281 282 281 280 280 282 283 282 283 283 280 278 280 281 281 282 282 282 283 282 283 283 283 284 285 286 286 287 287 287 288 288 289 289 290 290 290 290 290 290 290 289 289 289 288 288 288 287 287 286 285 285 284 283 283 282 281 280 279 278 277
274 273 272 273 275 275 275 276 277 278 281 283 283 285 287 287 288 288 285 285 286 286 283 281 280 280 279 278 278 279 282 284 283 285 287 285 283 283 284 283 284 284 283 284 284 284 284 285 286 287 287 288 288 289 289 290 290 291 291 292 292 292 292 291 291 291 291 290 290 289 289 289 288 288 287 286 285 285 284 283 282 281 281 280 278 278
275 274 272 271 273 274 274 275 276 278 281 283 283 285 285 285 287 287 285 286 288 285 281 279 278 278 277 277 279 280 280 283 285 286 287 287 286 285 285 284 285 285 284 285 285 285 286 287 288 288 289 289 290 291 291 292 292 293 293 293 294 294 293 293 293 293 292 292 291 291 290 290 290 289 288 287 287 286 285 284 283 282 281 280 279 278
276 275 273 272 274 274 274 276 277 278 280 282 283 283 283 284 284 282 283 285 285 281 279 278 277 277 278 279 281 282 282 283 285 286 287 287 286 285 285 285 285 285 286 286 287 287 288 289 289 290 290 291 291 292 293 293 294 294 295 295 295 295 295 295 295 294 294 293 293 292 292 291 291 290 289 288 288 287 286 285 284 283 281 280 279 278
277 277 275 274 275 276 276 277 279 280 282 283 283 283 281 281 280 280 283 284 280 278 279 278 277 278 280 281 282 284 284 285 286 287 287 286 285 285 285 285 286 286 287 287 288 289 289 290 290 291 291 292 293 293 294 295 295 295 296 296 296 296 297 296 296 296 295 295 294 294 293 292 292 291 290 290 289 288 287 286 285 284 282 281 280 278
277 278 278 277 277 278 278 277 278 282 285 284 283 283 280 277 279 283 284 281 278 277 278 277 277 279 281 282 283 283 284 285 286 286 286 285 285 285 285 286 286 287 287 288 289 290 290 291 291 291 292 293 294 295 295 296 297 297 297 298 298 298 298 298 297 297 297 296 296 295 294 294 293 292 291 291 290 289 288 287 286 285 283 282 281 279
276 277 279 279 278 277 277 277 278 284 287 283 280 281 281 279 282 283 282 280 279 279 279 279 280 281 281 282 282 282 284 285 285 285 286 285 285 285 286 286 287 287 288 288 289 291 292 292 292 292 293 294 295 296 297 297 298 298 299 299 299 299 299 299 299 299 298 297 297 296 296 295 294 293 292 292 291 290 289 288 287 286 285 284 282 280
275 276 278 278 278 276 276 278 281 284 285 281 278 280 281 281 281 281 280 280 280 280 280 281 283 284 283 282 282 283 284 284 285 285 285 285 286 286 286 287 287 287 289 290 290 291 292 292 293 293 294 295 297 298 298 299 299 300 300 300 301 301 301 301 301 300 299 299 298 297 297 296 295 294 294 293 293 292 291 290 289 288 286 285 282 280
277 278 278 278 278 277 277 279 281 282 281 280 279 279 279 280 280 279 279 279 280 280 281 282 283 284 284 283 284 284 283 284 285 286 286 286 286 287 287 287 288 289 290 291 291 292 293 293 294 294 295 297 298 299 300 300 301 301 301 302 302 302 302 302 302 301 300 300 299 298 298 297 297 296 296 295 294 293 292 291 290 289 287 285 283 281
278 278 277 277 277 277 278 279 280 280 280 281 280 279 279 279 279 278 278 279 280 281 282 282 283 283 283 283 284 284 284 285 286 286 287 287 287 287 288 288 289 290 291 291 292 293 293 294 294 295 297 298 300 300 301 301 302 302 303 304 304 304 304 303 303 302 301 301 301 300 300 299 298 298 297 296 295 294 294 293 291 289 287 286 284 283
280 278 277 276 275 274 277 281 282 281 280 281 281 281 281 281 280 279 279 280 282 282 282 282 282 283 284 284 284 284 285 285 286 286 287 287 287 288 289 289 290 290 291 291 292 292 293 294 295 296 298 299 300 301 302 303 304 304 305 306 306 305 305 304 304 303 303 303 302 302 301 300 300 299 299 298 297 296 295 294 292 290 288 287 286 285
280 279 278 277 275 275 277 281 283 282 280 280 280 280 280 280 280 280 279 280 282 283 282 282 282 283 284 285 285 285 285 285 286 286 287 287 288 288 289 289 290 290 290 291 292 292 293 295 296 298 299 300 301 302 303 304 305 306 307 307 307 306 306 306 305 305 305 304 304 303 303 302 301 301 300 299 298 296 295 294 293 292 290 289 288 286
277 277 277 275 275 277 279 281 282 282 281 282 281 281 281 281 281 281 280 280 282 283 284 283 283 284 285 285 285 285 285 285 286 286 287 287 288 288 289 289 289 290 290 291 291 292 294 295 297 299 299 300 301 303 305 306 307 308 308 308 308 308 308 308 308 307 307 306 306 305 305 304 303 302 300 299 298 297 296 296 295 293 292 291 289 287
273 275 275 273 274 278 280 280 280 280 282 283 283 283 282 281 281 280 280 281 283 285 285 284 284 284 285 285 285 285 285 285 286 287 287 287 288 288 289 289 289 290 290 291 292 293 295 297 298 299 300 301 303 305 306 307 308 309 309 309 310 310 310 310 310 309 309 309 308 307 306 304 303 302 301 300 300 300 299 298 297 295 293 292 291 289